{"data":{"norad_id":60478,"epoch":"2026-09-22T17:03:29.958624Z","epoch_age_seconds":95272,"freshness":"FRESH","line1":"1 60478U 24149L   26265.71076341  .00017899  00000+0  37871-3 0  9997","line2":"2 60478  97.3713 351.0766 0002745 261.6377  98.4561 15.45189633117361","mean_motion":15.45189633,"eccentricity":0.0002745,"inclination_deg":97.3713,"raan_deg":351.0766,"arg_perigee_deg":261.6377,"mean_anomaly_deg":98.4561,"bstar":0.00037871,"rev_number":11736,"period_min":93.192445072533,"perigee_km":428.95187113823,"apogee_km":432.68998904184,"semimajor_km":6808.95793009,"source":"CELESTRAK","updated_at":"2026-09-23T09:00:20.653673Z"}}